[[{"header":{"parameterUnit":"m.s-1","parameterCategory":1,"la1":30.2991,"la2":30.254,"lo1":-89.0895,"lo2":-89.0444,"dy":0.0017,"dx":0.0017,"nx":28,"ny":28,"refTime":"2024-10-14T09:00:00:Z","depth":0,"parameterNumber":2,"parameterNumberName":"U-component_of_WINDS"},"data":[0,0,0,0,0,0,0,0,0,0,0,0,0,0,0,0,0,0,0,0,0,0,0,0,0,0,0,0,0,0,0,0,0,0,0,0,0,0,0,0,0,0,0,0,0,0,0,0,0,0,0,0,0,0,0,0,0,0,2.625,2.6251,0,2.631,2.631,2.6311,2.6272,2.627,2.6268,2.6266,2.6332,2.6336,2.6339,0,0,0,0,0,0,0,0,0,0,0,0,0,2.611,2.6113,2.625,2.6251,2.6252,2.6309,2.631,2.6311,2.6272,2.627,2.6268,2.6265,2.6331,2.6335,2.6339,0,0,0,0,0,0,0,0,0,0,0,0,0,2.6171,2.6114,2.625,2.6239,2.6239,2.6309,2.631,2.6311,2.6272,2.627,2.6267,2.6264,2.633,2.6335,2.634,2.6426,0,0,2.6356,2.6358,0,0,0,0,0,0,0,0,2.6167,2.6176,2.624,2.624,2.6239,2.628,2.6285,2.635,2.6273,2.626,2.6266,2.6263,2.6318,2.6324,2.6341,2.6429,2.6432,2.6356,2.6359,2.6362,2.6363,0,0,0,0,0,0,0,2.6163,2.6173,2.6274,2.6241,2.6241,2.6234,2.6239,2.6297,2.6303,2.6261,2.6258,2.6265,2.6317,2.6336,2.6342,2.6433,2.6356,2.6361,2.6364,2.6366,2.6602,2.6605,0,0,0,0,0,0,2.6159,2.617,2.6272,2.6276,2.6196,2.6238,2.6244,2.627,2.6303,2.6305,2.6268,2.6263,2.6328,2.6336,2.6344,2.6451,2.6362,2.6366,2.6369,2.6599,2.6602,2.6606,0,0,0,0,0,0,2.6156,2.6169,2.6269,2.6222,2.6234,2.6244,2.6273,2.6273,2.6291,2.6308,2.6309,2.6285,2.6327,2.6337,2.6407,2.6453,2.6369,2.6373,2.6595,2.66,2.6604,2.6664,0,0,0,0,0,0,2.6152,2.6168,2.6198,2.6223,2.6237,2.6329,2.6275,2.6276,2.63,2.6295,2.6325,2.6327,2.6325,2.64,2.6412,2.6458,2.6377,2.6591,2.6597,2.6603,2.6658,2.667,2.668,0,0,0,0,0,2.6147,2.6213,2.62,2.6213,2.6275,2.6332,2.634,2.6335,2.6304,2.6336,2.6348,2.6326,2.6446,2.6407,2.6421,2.6469,2.6588,2.6595,2.6602,2.6653,2.6667,2.668,0,0,0,0,0,0,2.6194,2.6216,2.6202,2.6276,2.6303,2.6325,2.6365,2.635,2.6386,2.638,2.6374,2.6382,2.6456,2.6469,2.6426,2.6558,2.6512,2.6523,2.6546,2.656,2.6571,2.6567,2.6382,0,0,0,0,0,2.6213,2.6255,2.6272,2.6337,2.635,2.6356,2.638,2.6374,2.6402,2.6413,2.6429,2.6458,2.6503,2.6532,2.6573,2.6659,2.6668,2.67,2.6711,2.672,2.673,2.6781,2.6797,2.6629,2.6629,2.6629,0,0,2.6252,2.6269,2.6296,2.6346,2.6366,2.6412,2.6365,2.6415,2.6451,2.6421,2.6488,2.6502,2.6534,2.6614,2.665,2.6628,2.6778,2.6729,2.6737,2.6741,2.679,2.6806,2.682,2.6634,2.6633,2.6632,0,0,2.6348,2.6364,2.6421,2.6442,2.6472,2.6476,2.6491,2.6516,2.6524,2.6591,2.6571,2.6615,2.669,2.6715,2.6738,2.6849,2.6832,2.6863,2.6922,2.6972,2.6985,2.6997,2.704,2.7055,2.6872,2.6872,2.6872,0,2.6394,2.6461,2.6453,2.6506,2.6531,2.6505,2.6566,2.6587,2.663,2.6649,2.6623,2.672,2.674,2.6827,2.6855,2.6873,2.6892,2.6859,2.6984,2.6996,2.7006,2.7048,2.7063,2.6876,2.6875,2.6875,2.6874,0,2.6518,2.6565,2.6608,2.665,2.668,2.6736,2.674,2.6771,2.6764,2.6772,2.6844,2.6867,2.6915,2.6935,2.6928,2.7023,2.7009,2.6984,2.6938,2.7026,2.7065,2.708,2.6881,2.688,2.6878,2.6878,0,0,2.6643,2.6682,2.6699,2.672,2.6753,2.6791,2.6848,2.6894,2.6923,2.6954,2.7005,2.7071,2.7049,2.7075,2.7071,2.7115,2.7206,2.7085,2.7086,2.7109,2.7318,2.7338,2.7356,2.7195,2.7198,2.72,2.7316,0,2.6744,2.6842,2.6838,2.6931,2.6977,2.6956,2.7007,2.7035,2.7045,2.7087,2.7099,2.7148,2.7113,2.7129,2.7171,2.7186,2.7248,2.7177,2.7245,2.7248,2.724,2.7375,2.7396,2.7504,2.7331,2.7333,2.7335,0,2.6873,2.691,2.7007,2.7038,2.7057,2.7102,2.7146,2.7186,2.7219,2.7224,2.7255,2.7245,2.7308,2.726,2.7348,2.73,2.7328,2.734,2.7344,2.7351,2.7298,2.739,2.7538,2.7555,2.7358,2.7356,2.7354,0,2.6959,2.7032,2.7101,2.7119,2.7155,2.7189,2.7206,2.7236,2.7265,2.7305,2.7325,2.7371,2.7397,2.7435,2.744,2.7404,2.753,2.7482,2.7539,2.7539,2.7567,2.7566,2.7725,2.7582,2.7581,2.7581,2.7581,0,2.7073,2.7134,2.7141,2.7183,2.7253,2.725,2.732,2.7334,2.7362,2.741,2.7394,2.744,2.7442,2.749,2.7495,2.7569,2.7581,2.7589,2.759,2.7591,2.7591,2.7611,2.7604,2.7585,2.7584,2.7584,2.7583,0,2.7181,2.7187,2.7261,2.7291,2.73,2.735,2.7376,2.7419,2.7428,2.7489,2.7503,2.7519,2.7575,2.7584,2.7649,2.7652,2.7743,2.7735,2.7731,2.7731,2.7789,2.7784,2.7968,2.7993,2.7831,2.7833,2.7834,0,2.7253,2.73,2.7335,2.7366,2.7385,2.7433,2.7464,2.7465,2.7497,2.7541,2.7579,2.7633,2.7677,2.7768,2.7787,2.7838,2.7833,2.7894,2.7841,2.7843,2.7838,2.7836,2.7842,2.7905,2.7907,2.7908,2.7909,0,2.7384,2.7386,2.7429,2.7475,2.7512,2.7549,2.7583,2.7609,2.7615,2.7653,2.771,2.7744,2.7812,2.7868,2.7919,2.794,2.7928,2.7926,2.7942,2.7945,2.7943,2.7948,2.7762,2.7922,2.792,2.7919,2.7919,2.7918,2.7478,2.7521,2.7553,2.7603,2.763,2.7663,2.7706,2.7721,2.7768,2.7823,2.7821,2.7885,2.7921,2.7989,2.8013,2.8065,2.8046,2.8069,2.8075,2.8082,2.8089,2.7933,2.8075,2.8074,2.8074,2.8074,2.8073,0,2.761,2.7631,2.7677,2.7727,2.7768,2.775,2.7789,2.7825,2.7881,2.7915,2.7959,2.8027,2.8081,2.8106,2.8161,2.8198,2.8194,2.8213,2.8211,2.8217,2.8101,2.8083,2.8215,2.8215,2.8215,2.8215,2.8215,2.8215,2.7684,2.7756,2.7762,2.7849,2.787,2.7931,2.7955,2.7988,2.8015,2.8091,2.8137,2.8152,2.8184,2.8241,2.8292,2.8298,2.8321,2.8343,2.8347,2.8239,2.8224,2.8211,2.8194,2.8347,2.8347,2.8458,2.8459,2.846]},{"header":{"parameterUnit":"m.s-1","parameterCategory":1,"la1":30.2991,"la2":30.254,"lo1":-89.0895,"lo2":-89.0444,"dy":0.0017,"dx":0.0017,"nx":28,"ny":28,"refTime":"2024-10-14T09:00:00:Z","depth":0,"parameterNumber":3,"parameterNumberName":"V-component_of_WINDS"},"data":[0,0,0,0,0,0,0,0,0,0,0,0,0,0,0,0,0,0,0,0,0,0,0,0,0,0,0,0,0,0,0,0,0,0,0,0,0,0,0,0,0,0,0,0,0,0,0,0,0,0,0,0,0,0,0,0,0,0,1.8345,1.8347,0,1.8511,1.8513,1.8515,1.8503,1.8501,1.8498,1.8496,1.8667,1.8673,1.868,0,0,0,0,0,0,0,0,0,0,0,0,0,1.8014,1.802,1.8345,1.8347,1.8349,1.8511,1.8513,1.8516,1.8504,1.8501,1.8498,1.8495,1.8664,1.8673,1.8681,0,0,0,0,0,0,0,0,0,0,0,0,0,1.8167,1.8022,1.8344,1.8362,1.8366,1.8511,1.8514,1.8516,1.8504,1.8501,1.8497,1.8493,1.8662,1.8672,1.8682,1.882,0,0,1.8713,1.8718,0,0,0,0,0,0,0,0,1.8158,1.8179,1.8358,1.8361,1.8365,1.8483,1.8459,1.8618,1.8505,1.8452,1.8496,1.8492,1.8609,1.8623,1.8662,1.8828,1.8835,1.8714,1.872,1.8725,1.8728,0,0,0,0,0,0,0,1.8147,1.8172,1.8411,1.836,1.8365,1.8361,1.8379,1.8489,1.8549,1.8456,1.8456,1.8476,1.861,1.8652,1.8666,1.8838,1.8714,1.8723,1.8729,1.8733,1.912,1.9123,0,0,0,0,0,0,1.8133,1.8163,1.8405,1.8416,1.825,1.837,1.839,1.8449,1.8548,1.8559,1.8479,1.8474,1.8637,1.8654,1.8672,1.8837,1.8725,1.8734,1.874,1.9116,1.9121,1.9125,0,0,0,0,0,0,1.8126,1.8155,1.8399,1.8289,1.832,1.838,1.8446,1.8454,1.8497,1.8565,1.8575,1.8511,1.8635,1.8658,1.8782,1.8843,1.8739,1.8748,1.9111,1.9117,1.9123,1.917,0,0,0,0,0,0,1.8116,1.8152,1.8206,1.8291,1.8326,1.8507,1.845,1.846,1.8514,1.8511,1.8598,1.8609,1.8633,1.8767,1.8792,1.8855,1.8756,1.9106,1.9114,1.9121,1.9163,1.9177,1.9189,0,0,0,0,0,1.8105,1.8214,1.8209,1.8238,1.8395,1.851,1.8531,1.8556,1.8519,1.8573,1.8616,1.8606,1.8832,1.878,1.8808,1.8875,1.9102,1.9111,1.912,1.9157,1.9174,1.9188,0,0,0,0,0,0,1.8136,1.8225,1.8221,1.8361,1.8428,1.8508,1.8577,1.8574,1.8653,1.8646,1.8675,1.8695,1.8819,1.886,1.88,1.9011,1.8962,1.8977,1.898,1.8997,1.9009,1.8996,1.8765,0,0,0,0,0,1.8159,1.8246,1.8319,1.8435,1.8469,1.8517,1.8569,1.8582,1.8653,1.8682,1.8734,1.8803,1.8889,1.8945,1.9029,1.9169,1.9186,1.9229,1.9241,1.9251,1.9264,1.9337,1.9356,1.9155,1.9155,1.9155,0,0,1.8208,1.8267,1.8321,1.8443,1.8497,1.8585,1.8542,1.8638,1.8703,1.8697,1.8816,1.8857,1.8935,1.9067,1.9128,1.9105,1.9323,1.9263,1.9271,1.9278,1.9349,1.9368,1.9385,1.9161,1.916,1.9159,0,0,1.8341,1.8396,1.8497,1.8551,1.8632,1.8663,1.8687,1.8768,1.8794,1.8914,1.891,1.8988,1.9137,1.9191,1.9239,1.9389,1.9381,1.9415,1.9481,1.9553,1.9568,1.9582,1.9633,1.9651,1.9428,1.9428,1.9428,0,1.8391,1.8525,1.8549,1.8645,1.8698,1.8695,1.8796,1.8848,1.8952,1.8988,1.8961,1.9144,1.9198,1.934,1.9376,1.9416,1.9442,1.9405,1.9564,1.9579,1.9592,1.9641,1.966,1.9431,1.9431,1.9431,1.943,0,1.8581,1.8673,1.8745,1.8844,1.8905,1.9004,1.9042,1.91,1.9108,1.914,1.9261,1.9324,1.9418,1.9453,1.9463,1.9597,1.9579,1.9558,1.9509,1.9614,1.966,1.9679,1.9436,1.9435,1.9434,1.9433,0,0,1.8741,1.885,1.8876,1.8919,1.9007,1.9078,1.9175,1.9267,1.9315,1.9386,1.9466,1.959,1.957,1.9623,1.9638,1.9701,1.9812,1.9672,1.9674,1.9693,1.9959,1.9973,1.9995,1.9807,1.9811,1.9814,1.9952,0,1.8881,1.9053,1.9076,1.9227,1.9311,1.9308,1.9392,1.9454,1.9486,1.9561,1.9597,1.9683,1.9651,1.9683,1.9745,1.9785,1.9865,1.9776,1.988,1.9884,1.9859,2.0019,2.0036,2.0163,1.997,1.9973,1.9976,0,1.9069,1.9143,1.9303,1.9375,1.9411,1.9487,1.957,1.9643,1.9712,1.9731,1.9789,1.9795,1.9892,1.9839,1.9973,1.9911,1.9955,1.9981,1.9986,1.9996,1.9935,2.0031,2.0205,2.0223,2.0005,2.0002,2.0,0,1.9165,1.9306,1.9419,1.9456,1.9545,1.9597,1.9637,1.9702,1.9754,1.9827,1.986,1.9944,1.999,2.0053,2.008,2.004,2.0211,2.0161,2.0228,2.0227,2.0264,2.0261,2.0444,2.0295,2.0295,2.0294,2.0294,0,1.9319,1.9416,1.9463,1.9532,1.9639,1.9665,1.977,1.9807,1.9865,1.9939,1.9942,2.0012,2.0045,2.0119,2.0141,2.0246,2.0268,2.0284,2.0289,2.0283,2.0281,2.0312,2.0303,2.0299,2.0298,2.0297,2.0296,0,1.9446,1.9481,1.9603,1.9676,1.9697,1.9772,1.9834,1.99,1.9931,2.0025,2.0049,2.0097,2.0184,2.0218,2.0325,2.0339,2.046,2.0459,2.0437,2.0437,2.0501,2.0494,2.071,2.0738,2.0572,2.0573,2.0575,0,1.9541,1.9615,1.9695,1.9745,1.9786,1.9867,1.9919,1.9946,2.0,2.0082,2.0137,2.0224,2.0295,2.0434,2.0478,2.0559,2.0558,2.0628,2.057,2.0561,2.0556,2.055,2.0556,2.0638,2.064,2.0641,2.0642,0,1.9705,1.9718,1.9793,1.9875,1.9937,2.0002,2.0066,2.0106,2.0142,2.0203,2.0291,2.0346,2.0454,2.0539,2.0621,2.066,2.0656,2.066,2.0679,2.0674,2.0657,2.0664,2.0464,2.0655,2.0654,2.0653,2.0652,2.0651,1.9817,1.9881,1.9946,2.003,2.008,2.0138,2.0203,2.024,2.0315,2.0405,2.0415,2.051,2.0573,2.0683,2.0725,2.0798,2.078,2.0808,2.0815,2.0821,2.0824,2.0646,2.0814,2.0813,2.0813,2.0813,2.0813,0,1.9978,2.002,2.0096,2.0184,2.0248,2.0239,2.0308,2.0362,2.0445,2.0505,2.0574,2.0674,2.0755,2.0804,2.0886,2.0934,2.0934,2.0955,2.095,2.0959,2.0838,2.0812,2.0953,2.0953,2.0953,2.0953,2.0953,2.0953,2.007,2.0177,2.0198,2.0328,2.0369,2.0461,2.0501,2.0553,2.0601,2.0712,2.078,2.0811,2.0866,2.095,2.1024,2.1036,2.1064,2.1086,2.1096,2.0982,2.0968,2.0954,2.0929,2.1093,2.1093,2.121,2.1211,2.1212]}]]